Skip Page Navigation
NASA JPL Caltech
NASA Logo - Jet Propulsion Laboratory + View the NASA Portal
+ Center for Near-Earth Object Studies
JPL Home Earth Solar System Stars & Galaxies Technology
JPL Solar System Dynamics
BODIES ORBITS EPHEMERIDES TOOLS PHYSICAL DATA DISCOVERY FAQ SITE MAP
JPL Small-Body Database Browser
Search: [ help ]  
14094 Garneau (1997 OJ1)
Classification: Main-belt Asteroid          SPK-ID: 2014094
Ephemeris | Orbit Diagram | Orbital Elements | Mission Design | Physical Parameters | Discovery Circumstances | Close-Approach Data ]

[ hide orbit diagram ]

For accurate long-term ephemerides, please instead use our Horizons system.This orbit viewer was implemented using two-body methods, and hence should not be used for determining accurate long-term trajectories (over several years or decades) or planetary encounter circumstances.


[ revert to old Java-based viewer ]

Orbital Elements at Epoch 2459000.5 (2020-May-31.0) TDB
Reference: JPL 25 (heliocentric ecliptic J2000)
 Element Value Uncertainty (1-sigma)   Units 
e .05065341886668904 4.3936e-08  
a 2.911705380374821 1.5062e-08 au
q 2.764217548126303 1.2662e-07 au
i 3.137798108184265 4.0129e-06 deg
node 97.64015220956374 8.4278e-05 deg
peri 254.6244479801446 9.22e-05 deg
M 185.170771031303 3.816e-05 deg
tp 2459881.814898368968
(2022-Oct-29.31489837)
0.00019304 TDB
period 1814.76155494363
4.97
1.4081e-05
3.855e-08
d
yr
n .1983731686508988 1.5393e-09 deg/d
Q 3.059193212623339 1.5825e-08 au
  Orbit Determination Parameters
   # obs. used (total)      1139  
   data-arc span      10569 days (28.94 yr)  
   first obs. used      1991-05-12  
   last obs. used      2020-04-18  
   planetary ephem.      DE431  
   SB-pert. ephem.      SB431-N16  
   condition code      0  
   norm. resid. RMS      .53923  
   source      ORB  
   producer      Otto Matic  
   solution date      2020-May-20 03:58:06  

Additional Information
 Earth MOID = 1.76023 au 
 Jupiter MOID = 2.1732 au 
 T_jup = 3.279 
[ show covariance matrix ]

Ephemeris | Orbit Diagram | Orbital Elements | Mission Design | Physical Parameters | Discovery Circumstances | Close-Approach Data ]

Physical Parameter Table
Parameter Symbol Value Units Sigma Reference Notes
absolute magnitude H 14.5   n/a MPO431664  
diameter diameter 3.885 km 1.509 urn:nasa:pds:neowise_diameters_albedos::2.0[mainbelt] (http://adsabs.harvard.edu/abs/2011ApJ...741...68M)  
geometric albedo albedo 0.203   0.188 urn:nasa:pds:neowise_diameters_albedos::2.0[mainbelt] (http://adsabs.harvard.edu/abs/2011ApJ...741...68M)  

14094 Garneau           Discovered 1997 July 28 by Spacewatch at Kitt Peak.
Marc Garneau (b. 1949) was the first Canadian in space and was appointed president of the Canadian Space Agency in 2001. He flew on space shuttle missions STS-41G, STS-77 and STS-97.
NOTE: some special characters may not display properly (any characters within {} are an attempt to place the proper accent above a character)
Reference: 20030614/MPCPages.arcLast Updated: 2005-04-26

[ show close-approach data ]
Alternate Designations
 1997 OJ1 = 1996 KF5 
Ephemeris | Orbit Diagram | Orbital Elements | Mission Design | Physical Parameters | Discovery Circumstances | Close-Approach Data ]
ABOUT SSD CREDITS/AWARDS PRIVACY/COPYRIGHT GLOSSARY LINKS
FirstGov 2020-Oct-22 13:54 UT
(server date/time)  
NASA Home Page
Site Manager:   Ryan S. Park
Webmaster  Alan B. Chamberlin